Starlink 4351

operational
NORAD ID: 53193 Int'l Des: 2022-084 Owner: SPXS Country: US Constellation: starlink
LEOCIRCULARRETROGRADESSO

Starlink 4351について

説明を読み込み中...

リアルタイム位置

3D地球を読み込み中...

次回通過

高度履歴

Altitude vs Time

uPlot chart will show altitude changes over time

軌道要素

1 53193U 22084E 25346.73120791 -.00000009 00000-0 38534-5 0 9995
2 53193 97.6050 45.0627 0001229 107.2134 252.9225 15.01261517187288
Epoch: Dec 12, 2025 • Age: 14 hours

現在のステータス

高度 589.2 km
速度 7.56 km/s
衛星直下点 -67.58°S, 12.85°E
打ち上げ日 Jul 22, 2022
運用期間 3.3 years
タイプ internet

技術仕様

分類 Payload
質量 297.00 kg
乾燥質量 275.00 kg
総質量 297.00 kg
長さ 0.20 m
直径 2.80 m
スパン 9.00 m
形状 Box + pan
製造者 SPXS
バスタイプ Starlink
フェーズステータス In Orbit
所有者/国 SPXS/US

大規模コンステレーション

Loading constellations...